Wind_Speed
2 0 1 1 5 5 5 7 8 8 10 9 6 3 4 4 2 0 3 6 4 4 7 6 5 6 8 8 7 7 8 8 8 9 10 11 11 11 11 10 9 10 9 8 10 12 14 18 20 19 19 18 18 17 15 14 14 14 14 15 16 16 17 16 15 17 19 21 21 21 20 19 19 17 16 15 14 13 11 8 6 4 5 5 5 5 4
4 3 3 2 5 5 6 10 10 8 8 9 8 6 6 5 3 3 5 8 5 4 5 7 8 8 9 9 8 9 9 9 10 11 12 12 13 13 12 10 9 9 9 9 11 14 14 16 19 21 21 21 23 23 20 20 19 17 18 18 19 20 20 18 16 16 18 21 20 18 17 16 15 14 13 12 10 8 8 8 5 2 3 4 4 3 3
3 4 5 4 3 5 7 11 12 10 8 8 8 7 6 5 3 4 6 7 5 5 6 10 9 8 10 10 10 10 10 10 11 12 12 12 13 13 13 12 11 11 10 10 11 14 14 13 17 21 22 23 26 27 26 26 25 24 25 25 25 25 24 22 20 19 20 19 17 16 16 16 15 15 14 13 12 11 10 11 9 7 5 5 5 6 6
3 3 4 3 2 3 5 9 13 12 8 5 5 4 4 4 2 3 5 3 3 3 7 9 9 10 12 11 10 10 10 10 11 12 12 12 12 12 12 12 12 12 11 10 11 13 13 14 16 18 21 26 27 28 28 27 27 28 29 30 29 28 27 25 23 22 21 20 19 18 18 17 17 18 18 18 18 17 16 14 13 11 10 10 10 10 10
3 2 1 1 2 3 1 5 8 8 5 5 5 2 3 6 4 2 2 2 3 4 6 8 9 11 12 10 9 9 9 10 10 11 11 11 12 12 12 13 12 11 10 10 14 15 16 19 20 18 24 29 28 28 29 28 29 31 31 31 30 28 27 27 26 24 23 22 22 21 20 20 20 19 19 19 19 18 18 16 15 14 13 13 13 12 12
2 2 3 2 3 2 1 1 5 5 4 6 5 2 5 7 3 3 4 5 6 5 5 8 10 11 11 10 9 9 8 8 9 10 11 10 10 11 12 13 12 10 9 11 16 19 20 23 23 23 28 32 30 30 32 32 33 34 33 32 32 31 30 30 29 27 25 24 23 23 22 21 20 20 20 20 20 19 18 17 17 16 15 14 14 13 13
3 1 1 2 2 1 2 2 4 5 3 6 5 2 6 8 4 5 7 8 9 9 8 9 11 12 12 12 12 11 10 8 8 9 10 10 9 9 10 12 11 11 11 10 14 21 23 24 25 26 29 32 32 32 32 32 33 34 34 33 33 33 33 31 30 30 29 28 27 25 24 22 22 22 22 22 21 20 19 18 18 18 17 16 16 15 14
2 2 1 1 2 2 1 2 5 6 4 6 4 1 5 9 6 4 7 8 9 11 11 9 9 9 10 12 12 11 10 9 9 9 8 8 9 10 11 12 12 12 12 12 16 21 22 23 26 29 31 34 35 35 34 34 35 35 35 33 31 31 31 29 28 28 28 27 26 25 25 24 23 23 22 21 20 19 18 17 17 16 15 15 15 14 13
2 3 3 3 3 3 3 3 5 5 3 5 4 1 3 8 5 4 7 9 10 10 10 9 8 7 8 10 9 9 9 9 9 10 10 9 10 12 13 15 15 15 15 15 18 22 23 24 26 30 34 37 38 38 37 36 36 35 34 32 29 28 27 26 26 25 24 24 24 23 23 23 22 21 20 19 18 17 16 16 15 14 13 13 12 12 11
1 3 4 2 2 2 3 5 5 4 3 5 3 2 1 5 6 3 7 10 10 9 8 7 5 3 6 8 5 6 8 9 9 10 11 11 13 15 16 17 17 17 15 14 17 21 22 21 24 29 33 36 37 37 36 35 34 33 31 29 27 26 25 23 23 23 22 22 22 22 21 21 20 19 18 17 16 15 15 15 14 13 12 11 10 10 9
1 3 4 2 2 2 4 8 8 6 4 3 2 2 1 5 5 3 5 8 9 10 9 6 2 1 4 5 3 3 7 9 10 10 10 11 14 17 18 19 18 17 15 13 16 21 20 18 21 27 31 34 34 33 32 31 31 30 28 25 24 23 22 21 20 20 20 20 20 20 20 19 18 17 16 15 14 13 13 13 12 11 10 10 9 9 8
3 3 3 3 3 2 6 10 11 8 3 1 3 1 2 5 4 4 6 5 5 5 4 3 2 2 3 5 4 3 5 8 10 11 10 11 14 16 17 19 19 19 18 16 15 17 18 19 23 28 31 32 29 25 26 28 27 25 23 22 21 20 20 19 19 19 19 19 19 19 18 16 16 15 14 13 13 12 12 12 11 10 10 9 9 8 8
3 4 4 3 2 2 6 11 11 6 1 2 0 2 2 3 3 6 5 3 3 2 1 2 3 4 5 7 6 5 8 9 9 10 10 12 14 13 14 17 19 19 20 19 17 16 17 21 26 29 31 30 26 23 25 26 24 21 19 19 19 20 20 20 19 19 18 18 18 17 16 15 14 14 14 13 12 12 12 11 10 10 9 9 9 8 8
2 2 4 3 2 2 8 12 9 4 1 1 2 4 2 1 5 7 6 5 5 6 7 7 7 8 10 9 8 8 9 9 8 8 9 12 13 13 14 17 19 19 19 20 20 19 19 22 25 26 28 28 24 23 24 22 20 18 18 18 18 19 20 19 19 18 17 16 16 16 15 14 14 14 13 12 11 11 11 10 10 10 10 10 9 8 8
1 2 4 3 2 3 11 12 6 2 3 2 2 3 2 4 7 7 7 7 8 9 10 10 10 10 10 9 8 8 7 6 6 8 9 10 12 14 15 16 19 20 18 17 18 18 18 21 23 24 25 24 22 22 21 18 16 16 16 17 18 18 18 18 17 16 16 15 15 14 13 13 13 12 12 11 12 12 12 11 10 10 10 10 9 8 8
2 3 4 3 2 5 9 8 3 3 4 3 3 1 4 6 6 6 8 8 8 9 11 10 10 10 9 6 6 5 5 5 5 6 8 8 10 12 14 16 20 22 20 17 18 18 18 19 21 21 22 21 19 19 17 14 14 15 16 16 17 17 16 15 15 14 14 14 13 12 12 12 11 12 12 11 11 12 12 11 9 8 9 9 9 8 8
4 5 4 2 2 4 5 5 3 3 4 4 3 3 5 6 5 6 7 8 8 9 10 11 10 9 7 5 4 5 5 5 5 6 7 8 9 10 10 12 17 20 20 19 19 18 17 18 20 19 19 19 18 16 14 13 13 14 15 15 16 15 14 13 12 12 12 12 12 12 12 12 11 11 11 11 9 9 10 9 8 7 7 8 7 7 7
5 6 6 4 4 5 5 5 4 4 5 5 4 5 7 7 7 7 7 8 8 8 9 10 10 8 6 5 5 5 5 5 6 7 8 8 9 10 11 12 15 19 20 19 19 18 18 18 19 20 19 19 18 16 14 13 13 13 13 14 14 13 12 11 10 10 9 10 11 12 12 12 11 11 11 10 8 8 8 7 7 6 6 6 6 6 6
2 4 5 5 5 5 6 6 7 7 8 7 6 7 8 9 9 9 8 9 8 7 8 9 9 7 6 5 4 4 4 5 6 7 7 8 9 10 11 13 16 19 20 18 17 17 17 17 19 20 20 19 18 16 14 13 12 12 12 12 11 10 10 9 9 9 9 10 10 10 12 11 10 10 11 10 8 8 8 8 8 8 8 8 8 8 8
3 3 3 3 4 6 6 6 6 7 8 8 8 8 9 10 10 9 9 9 7 6 6 7 7 6 4 4 4 3 3 4 5 6 7 8 9 10 12 14 16 17 17 16 15 15 16 17 19 19 19 18 16 14 13 11 10 10 11 11 11 10 9 9 9 9 10 10 10 9 11 12 11 10 10 10 9 9 9 8 8 8 8 8 8 8 9
5 4 3 3 6 7 6 6 6 5 6 8 9 9 10 10 10 9 9 9 8 8 7 6 6 5 3 3 4 3 3 4 4 5 6 7 9 10 11 12 15 16 16 15 14 14 15 16 17 17 17 16 14 12 11 9 7 8 10 10 10 10 9 9 9 9 9 10 10 10 10 11 11 11 10 10 9 7 7 6 5 5 6 6 7 7 8
4 3 3 3 3 5 4 4 4 4 3 6 10 10 9 10 9 9 8 8 8 8 8 8 7 5 3 3 4 3 3 3 4 5 6 7 8 10 11 12 14 15 15 15 14 14 15 15 15 15 14 13 13 12 11 9 8 8 9 9 9 9 9 9 9 9 8 8 10 11 10 10 10 10 11 12 12 9 6 3 2 2 3 4 5 6 7
4 3 3 2 2 4 4 2 2 3 2 3 8 8 8 8 8 9 9 9 7 6 5 5 7 7 5 6 6 4 2 3 5 5 6 7 7 8 10 11 12 13 14 14 14 14 14 14 13 13 12 12 12 12 12 12 10 8 8 8 7 8 8 8 9 8 8 8 9 10 10 10 10 8 8 10 13 13 9 6 5 4 3 3 4 4 6
4 3 3 1 2 4 4 2 2 2 1 2 5 5 6 6 6 6 7 6 6 6 5 4 7 9 8 8 8 6 4 4 5 6 6 7 7 7 8 9 10 11 11 12 12 12 12 12 11 10 10 10 10 10 12 12 11 9 8 7 7 7 8 8 8 8 8 8 8 8 9 10 10 9 7 7 9 11 13 13 12 10 8 7 6 5 5
3 4 2 1 3 5 4 3 2 2 2 3 3 3 3 4 5 5 5 4 5 6 7 6 7 9 9 8 7 7 6 5 6 6 7 7 7 7 7 7 7 8 9 9 10 11 11 10 10 9 8 8 8 8 10 10 10 9 7 7 7 7 7 7 7 8 8 8 9 9 9 9 9 9 9 8 7 8 10 13 14 14 13 12 10 7 7
4 5 4 4 4 3 3 2 2 3 3 3 3 2 2 3 4 4 5 5 5 7 9 9 8 8 8 7 7 8 7 6 7 6 5 5 6 5 6 6 6 6 6 7 8 9 10 10 9 8 7 7 6 6 7 8 9 9 8 7 6 6 6 7 7 7 9 10 11 11 11 10 10 9 10 11 10 9 9 11 13 13 14 15 14 11 10
4 4 4 5 4 2 2 1 2 3 4 4 4 3 3 3 5 6 6 6 7 8 9 10 9 8 7 7 7 7 7 7 7 5 3 3 3 3 3 5 5 5 4 3 4 5 8 9 8 7 7 6 5 5 5 6 8 8 9 8 6 5 5 6 8 9 10 12 13 13 11 10 10 10 10 11 11 10 10 10 11 11 12 13 15 15 14
3 3 2 1 1 2 2 2 3 4 5 4 5 5 4 4 5 5 5 5 6 6 6 7 8 6 5 6 6 5 5 5 5 4 3 3 2 2 3 3 3 2 2 1 1 2 5 7 7 7 6 6 4 3 3 4 6 7 8 8 7 5 4 5 6 7 8 10 11 11 11 10 9 10 10 11 10 9 9 10 11 10 10 12 14 16 17
2 3 2 1 1 1 4 5 5 4 4 4 5 5 5 4 3 3 3 4 4 4 5 6 7 6 4 5 6 5 4 4 5 4 4 4 4 5 5 5 4 3 3 3 3 4 5 6 7 7 8 7 6 4 2 2 3 5 6 6 6 6 5 5 5 5 5 6 8 9 9 9 9 9 10 10 11 10 9 11 13 11 10 11 14 16 18
2 2 1 1 1 3 5 4 3 3 2 2 3 3 3 3 3 2 3 3 3 4 5 6 7 6 6 6 7 7 6 5 5 5 4 4 5 7 8 8 6 5 5 5 5 6 7 7 7 8 8 8 7 5 3 1 2 3 5 6 6 6 6 6 5 3 2 3 5 7 8 8 9 9 9 9 10 10 10 13 14 12 10 11 12 13 14
2 2 2 3 3 4 4 3 3 3 3 2 2 1 2 3 3 3 2 3 4 5 6 6 7 8 9 9 8 8 8 8 7 6 5 5 4 6 8 9 8 7 6 5 6 7 8 9 9 9 9 8 7 6 3 1 1 2 3 5 6 6 7 7 6 4 3 3 4 5 6 7 7 9 9 8 8 10 11 14 14 12 10 10 11 10 11
2 3 3 3 2 2 3 3 3 3 3 2 2 3 3 3 4 3 2 3 5 6 6 7 9 11 11 10 9 8 9 9 8 7 5 4 4 4 6 8 9 8 7 6 6 7 8 9 10 9 8 8 8 6 4 2 0 1 3 4 5 6 8 9 8 6 4 4 4 4 5 6 6 7 8 7 7 9 12 14 13 11 9 8 9 10 11
2 2 2 1 1 1 2 2 2 3 4 3 3 3 5 5 6 5 5 6 7 6 7 11 13 12 11 9 8 8 7 6 6 5 5 4 3 4 6 7 8 9 8 8 7 8 9 9 9 8 8 9 8 6 3 2 1 0 2 4 5 7 8 10 9 7 5 4 4 4 5 6 6 6 6 5 5 7 10 12 12 10 8 7 7 8 12
1 2 3 2 2 1 1 2 2 2 2 1 0 2 4 6 8 8 8 9 9 9 12 15 14 11 9 7 7 7 6 5 5 5 5 3 2 3 5 6 7 8 8 8 9 9 8 7 7 8 9 9 8 5 3 2 2 1 1 3 5 6 7 8 8 7 5 4 4 4 5 6 5 5 5 5 5 6 8 10 10 9 8 7 7 8 11
2 3 3 2 2 3 2 1 1 1 1 1 1 3 4 5 6 7 8 10 12 13 14 13 11 8 7 6 6 7 7 6 7 7 6 4 3 4 4 5 6 7 7 8 9 9 7 6 7 8 9 10 9 7 4 4 3 2 1 2 4 5 6 7 7 6 5 4 4 5 5 5 4 4 5 5 5 5 7 8 8 8 7 7 7 8 12
5 3 3 3 3 3 3 4 3 1 0 1 3 4 3 2 2 3 5 8 10 12 12 10 8 8 7 6 6 7 6 6 7 7 6 4 4 5 5 5 6 7 7 8 8 7 6 6 7 8 9 10 9 7 5 5 4 4 2 1 3 4 6 7 7 6 4 4 5 5 4 4 3 4 5 4 4 4 6 6 6 7 7 7 8 10 13
7 6 5 5 6 5 5 5 4 2 2 2 4 4 3 4 5 5 6 7 8 9 10 10 9 8 7 6 6 6 6 6 7 7 6 6 6 7 7 7 8 8 8 7 6 5 5 5 6 8 9 9 8 7 6 6 6 5 3 2 2 3 4 5 6 5 5 5 5 5 5 5 5 5 5 4 3 4 6 7 7 8 7 7 8 12 13
5 5 5 5 5 4 4 4 3 3 4 4 5 5 6 7 8 8 7 7 7 7 8 9 10 8 6 5 6 7 7 8 8 8 7 7 7 7 9 10 10 9 8 7 6 5 5 5 5 7 8 8 7 6 6 7 7 5 4 3 2 2 4 5 5 5 5 5 5 6 7 7 6 5 4 4 4 5 7 9 9 8 7 7 9 12 12
4 4 4 4 4 3 4 4 4 4 5 6 7 8 9 8 7 6 6 5 5 5 7 9 9 8 6 6 7 8 9 9 9 9 9 8 8 9 10 11 11 9 9 9 8 7 7 6 6 7 7 7 6 6 7 8 6 4 4 4 3 2 4 5 5 5 4 5 5 6 7 7 6 4 4 5 4 4 7 9 9 7 6 7 8 9 9
5 5 5 5 5 5 5 6 6 6 6 7 8 9 9 6 4 3 3 3 3 3 6 8 9 9 9 9 10 10 10 9 8 8 8 8 8 9 11 10 8 6 5 6 6 8 9 9 8 8 7 6 6 7 8 7 5 3 4 4 4 3 3 4 4 4 4 4 5 6 6 7 7 5 5 5 4 4 5 6 7 6 6 6 6 6 6
6 7 7 7 6 6 6 6 7 8 7 7 7 8 7 5 4 2 2 1 1 3 5 8 10 10 10 10 10 11 11 10 9 8 8 8 7 8 8 7 5 3 3 4 3 5 9 11 10 9 7 6 7 8 8 6 5 4 4 5 5 4 3 3 4 4 4 4 4 5 6 7 7 7 6 5 4 4 4 5 6 6 5 5 5 5 6
7 8 8 8 7 7 6 6 7 9 8 7 6 7 7 6 4 3 3 2 2 4 6 7 9 10 11 10 10 11 12 11 10 10 10 9 7 7 7 7 5 4 3 4 3 2 6 9 10 9 8 7 7 7 7 5 5 5 5 5 6 5 4 3 4 4 4 3 4 4 5 5 5 6 7 6 4 4 4 5 5 6 6 6 6 6 7
7 7 8 8 8 7 7 7 7 8 9 9 8 7 6 5 4 4 5 5 5 6 7 8 9 10 11 11 11 11 12 13 12 11 11 10 9 8 9 9 9 7 7 5 4 3 4 7 9 9 8 7 7 8 7 6 6 6 6 5 6 6 6 4 4 4 4 4 3 3 4 5 4 4 5 6 5 4 4 5 5 6 6 7 7 7 7
7 6 6 7 7 7 7 7 8 8 9 9 8 7 6 5 3 2 4 6 7 8 8 9 9 10 11 12 12 13 13 14 13 11 10 10 10 8 7 6 6 5 6 6 7 6 5 6 7 8 7 7 7 8 8 7 7 7 7 6 6 7 8 7 5 4 4 5 4 4 4 3 3 2 3 5 5 5 5 5 5 5 5 6 6 6 6
6 5 5 6 6 6 6 7 7 7 8 8 8 8 8 7 6 4 4 5 6 7 7 7 8 9 10 11 12 12 13 14 13 11 9 8 7 6 5 4 4 4 5 5 7 9 9 8 7 7 7 7 7 8 9 8 7 7 7 7 6 7 9 9 7 6 5 5 5 5 3 3 2 2 2 3 5 6 6 6 5 4 4 4 4 4 5
5 5 5 5 6 6 6 6 6 7 8 8 8 8 8 8 9 9 8 7 8 8 7 6 6 6 7 9 11 11 11 11 11 10 9 9 8 8 8 8 8 7 6 6 6 7 9 9 8 7 7 7 7 8 9 8 7 7 7 7 7 7 9 11 10 8 6 6 5 5 4 3 3 2 2 3 5 7 7 7 5 4 3 4 5 5 6
5 6 6 6 7 7 7 6 6 6 6 6 6 7 8 7 8 9 9 9 9 9 9 8 8 7 7 8 10 11 10 10 9 8 8 9 8 7 8 9 8 7 6 5 5 4 7 9 8 7 6 6 7 9 9 8 7 7 8 8 7 7 8 11 12 10 8 6 5 5 4 4 3 3 3 4 6 7 8 7 6 5 4 4 6 7 7
5 6 6 7 7 8 8 7 7 7 6 7 8 9 9 8 7 7 8 8 9 9 9 9 10 9 8 7 7 8 8 8 7 6 6 5 4 3 3 4 5 5 5 4 3 2 4 7 7 7 6 6 7 9 9 8 8 8 8 7 6 5 7 10 13 12 10 8 7 5 5 5 4 4 4 4 5 7 8 7 7 6 5 3 4 5 6
5 6 7 7 7 8 8 8 6 6 8 9 9 9 9 8 7 7 7 8 9 9 9 8 9 9 8 7 7 7 6 6 6 6 6 5 5 4 2 2 3 3 4 3 2 2 3 5 6 6 6 7 8 9 9 8 8 8 7 5 3 2 3 7 10 12 12 11 8 7 6 6 5 5 5 5 5 5 6 6 6 7 7 4 2 3 4
6 6 6 7 8 8 9 8 7 8 9 10 10 9 7 7 7 7 7 7 7 7 7 7 7 7 7 6 7 7 6 5 5 5 6 6 6 6 5 3 2 2 3 3 2 1 2 3 4 4 5 7 8 9 9 8 7 6 5 3 1 1 2 4 6 10 12 13 11 9 8 7 7 6 6 6 5 5 4 5 6 8 8 6 4 2 2
6 6 6 7 8 8 8 8 8 8 9 9 9 8 8 7 8 9 8 7 7 7 7 7 6 6 6 5 5 5 5 5 4 5 6 7 6 5 4 4 3 3 3 2 2 1 1 2 2 2 2 4 5 6 6 6 6 6 4 2 2 3 5 6 7 8 10 12 13 12 11 9 8 7 7 7 7 7 5 5 6 8 9 9 8 6 3
5 5 5 6 7 8 8 8 7 6 6 7 7 8 8 8 8 10 10 8 8 8 8 8 6 5 4 4 4 3 3 3 4 4 5 5 5 4 3 4 5 4 3 2 1 1 0 1 1 1 1 2 3 4 5 6 6 6 4 3 3 4 4 5 6 6 7 9 12 13 13 12 10 9 8 8 8 8 8 7 6 7 8 9 10 9 7
Wind_Direction
113 88 313 104 104 91 69 53 36 24 24 32 52 47 355 342 307 347 130 149 151 151 152 136 111 104 89 80 80 75 73 71 65 66 65 57 50 47 44 38 33 28 18 21 34 38 53 73 78 76 78 85 93 99 104 107 108 112 113 110 106 105 105 105 111 124 131 134 133 132 134 134 134 134 133 131 131 132 136 134 132 154 179 189 195 191 183
94 56 25 78 114 103 67 51 43 35 41 51 55 46 14 9 34 70 124 133 97 56 109 96 77 89 90 82 77 69 67 71 70 69 68 62 58 57 51 41 38 37 24 21 38 47 50 66 80 81 77 81 86 86 90 97 101 107 110 106 104 105 103 102 108 116 120 124 125 125 126 126 127 132 134 133 135 142 148 146 141 157 198 207 210 195 179
92 48 32 33 75 106 81 52 37 29 38 51 45 30 14 13 64 101 130 133 87 44 77 84 75 79 80 74 70 69 70 75 77 75 70 67 66 63 58 49 40 39 32 22 37 51 48 55 77 86 84 85 87 87 90 96 101 107 109 105 104 105 108 111 117 119 121 123 125 123 120 119 123 129 134 136 136 138 142 142 140 143 148 145 131 121 119
132 58 49 48 62 124 91 46 25 15 21 28 4 1 10 352 2 131 146 143 107 98 92 80 71 71 74 73 71 74 75 72 75 77 74 73 70 66 65 58 46 41 35 29 40 52 54 55 65 78 84 84 83 84 87 92 98 103 103 101 100 100 105 110 113 117 120 120 119 118 117 119 121 122 122 122 121 122 123 122 123 126 126 121 115 109 108
149 53 25 147 180 192 115 27 4 351 355 356 334 335 11 348 326 187 164 60 89 129 113 91 82 74 74 74 69 73 77 72 74 76 74 72 70 68 68 63 53 43 39 49 55 53 56 63 64 71 83 84 84 86 87 90 95 97 95 95 97 96 98 101 102 105 112 113 113 112 112 115 117 117 116 112 110 110 109 109 112 112 109 109 109 106 106
133 8 323 205 188 209 177 21 345 332 342 0 5 28 10 353 359 90 71 52 59 68 79 94 97 83 75 73 61 57 64 69 72 70 64 63 64 65 66 64 59 46 39 57 68 63 63 69 71 76 83 85 86 87 88 89 91 92 90 89 90 91 92 95 97 99 103 106 107 107 107 109 109 109 107 105 105 105 104 104 104 101 99 99 99 98 98
106 94 289 186 147 33 170 173 357 350 344 358 5 59 30 12 25 74 75 73 72 72 74 89 100 94 85 74 59 49 47 51 64 67 60 56 56 59 65 67 64 51 35 42 65 70 70 73 75 77 80 84 86 85 86 88 88 89 88 85 84 86 89 92 95 98 100 102 104 104 105 105 103 101 99 98 100 102 102 101 99 96 96 95 93 94 94
119 140 69 102 114 58 135 146 12 4 358 356 348 68 38 18 13 64 85 92 98 103 104 100 103 105 94 75 56 46 48 49 54 62 62 57 54 57 63 64 59 51 43 46 65 75 76 77 79 80 81 84 85 83 83 84 83 85 85 82 80 81 84 87 91 94 96 98 100 100 101 102 99 97 96 94 93 94 96 97 96 96 94 91 90 91 90
122 121 79 87 139 105 59 35 14 6 341 338 332 278 11 14 20 85 112 115 113 114 116 117 124 125 101 77 49 32 44 53 56 61 65 63 59 58 62 65 62 60 59 64 74 81 84 85 85 85 85 86 85 82 82 81 81 81 80 78 77 77 79 81 84 87 90 91 91 91 91 91 90 88 89 88 89 91 93 94 94 92 90 87 85 85 83
70 121 111 108 143 101 29 355 350 350 313 303 295 243 331 11 22 77 127 130 126 126 133 139 148 131 86 79 58 37 54 64 64 63 62 60 60 61 64 68 68 66 66 71 80 86 86 87 88 87 86 84 82 81 81 80 79 79 78 78 78 76 75 76 77 80 83 84 84 83 81 81 79 78 78 78 79 83 85 87 88 87 86 85 82 78 76
62 100 106 82 85 86 3 339 328 326 322 292 238 204 359 2 7 52 123 137 136 137 145 149 138 74 96 107 121 87 74 71 70 68 61 56 63 68 71 73 74 76 79 79 83 86 84 80 85 88 87 84 82 81 82 81 80 81 81 81 80 78 76 75 73 74 75 76 78 78 77 77 76 75 74 72 72 74 75 76 78 79 79 79 76 72 69
81 89 93 71 74 61 352 336 324 321 331 183 193 177 25 1 11 82 113 128 129 128 146 144 72 51 125 138 149 128 93 78 73 73 67 63 68 72 74 78 83 87 90 86 77 78 80 83 88 91 88 86 85 84 84 84 84 85 86 86 84 83 80 77 74 72 71 71 73 74 74 76 76 76 75 73 71 70 69 68 67 67 67 66 64 61 56
74 85 102 96 74 31 344 331 322 319 290 183 174 8 348 345 49 91 95 89 81 52 27 103 86 61 87 110 124 120 108 98 88 84 85 85 85 83 83 89 93 91 90 88 79 73 80 87 89 88 86 86 87 87 86 86 87 91 91 89 87 85 82 79 76 72 70 70 70 71 72 74 75 74 72 68 66 63 61 58 54 51 50 48 48 45 39
44 72 101 99 100 49 348 329 314 312 304 181 21 359 300 166 90 83 65 54 72 79 79 89 93 86 89 102 112 106 101 100 98 98 98 93 92 93 93 97 99 95 90 89 86 81 82 86 86 84 83 85 86 85 84 86 92 96 94 91 89 86 83 82 78 75 72 70 69 68 66 65 66 64 59 55 53 51 48 45 41 37 33 32 32 27 21
29 69 71 68 90 15 349 339 325 358 17 9 348 346 23 97 89 74 62 63 81 93 92 89 91 93 95 100 105 102 98 95 91 91 91 91 97 104 105 103 104 101 94 89 87 87 85 84 83 81 81 83 84 82 83 89 96 95 90 88 86 83 81 79 76 73 70 67 66 64 60 56 55 52 47 41 37 35 34 33 32 29 27 25 25 23 18
20 63 58 50 24 338 345 355 3 353 344 322 289 329 72 84 83 79 75 69 71 86 95 93 90 92 91 90 97 101 98 92 86 83 85 93 104 111 112 114 113 110 105 100 98 97 93 89 85 81 81 85 86 84 88 97 98 93 89 87 84 81 80 78 74 71 68 64 61 57 52 50 48 43 40 37 32 29 29 28 28 26 23 22 21 20 16
60 69 68 68 35 353 357 19 17 348 353 355 354 66 87 88 90 92 88 80 71 77 90 93 87 83 82 78 78 78 78 79 82 86 90 100 110 111 111 116 116 112 109 107 103 99 96 93 89 85 86 89 90 91 97 101 98 93 90 86 82 80 80 78 76 74 71 65 62 59 53 51 49 43 39 38 34 30 28 28 28 25 21 21 19 16 10
84 75 62 56 45 29 28 42 40 39 48 44 45 68 80 90 99 98 97 97 89 79 84 89 85 84 84 76 67 69 75 72 71 79 89 100 110 113 112 115 115 112 109 105 100 96 94 93 90 87 87 90 94 99 103 101 96 93 89 83 80 79 78 78 75 71 70 68 66 62 57 53 50 46 42 40 38 34 32 30 29 26 21 16 15 11 5
106 79 50 31 35 37 37 53 63 62 63 65 68 73 80 90 97 98 101 103 96 84 86 93 96 97 97 87 74 64 64 62 59 64 79 93 106 114 119 123 123 119 113 108 103 100 98 96 93 89 87 88 92 96 98 96 94 94 92 88 83 79 77 75 70 66 70 71 63 55 51 48 45 43 40 38 35 31 28 23 19 18 15 10 9 5 356
79 77 47 37 63 62 50 57 70 72 76 81 84 89 95 96 94 97 103 103 98 89 89 97 102 100 94 90 88 73 53 60 63 62 74 95 113 120 128 133 131 125 121 118 115 112 110 107 102 96 92 92 92 91 90 90 89 91 92 88 80 74 70 66 63 64 68 65 54 45 45 45 44 41 36 35 34 29 24 19 13 8 5 4 1 354 346
91 93 101 112 96 77 62 64 73 74 84 97 99 99 103 105 105 105 106 110 118 121 121 120 113 100 87 87 92 89 79 80 82 85 93 111 127 134 140 144 138 132 129 126 122 119 119 114 107 101 99 97 93 89 87 87 90 94 95 88 76 66 62 61 61 62 60 53 44 39 41 44 49 49 43 39 38 30 21 19 15 5 356 351 349 343 335
93 109 141 146 111 93 92 88 77 58 65 103 110 108 109 115 121 123 122 124 129 131 134 140 135 120 108 114 109 99 92 94 101 111 116 123 134 143 149 150 145 139 135 132 128 125 124 120 113 107 102 96 88 82 77 77 86 97 97 88 73 63 61 61 60 59 55 48 42 39 37 40 47 52 49 43 38 34 30 28 36 31 1 345 344 340 327
82 104 140 153 94 105 125 120 66 34 13 101 115 115 117 123 130 134 136 137 135 127 123 139 142 136 140 148 140 123 108 119 125 127 129 131 136 143 148 150 149 147 142 138 135 132 131 127 121 114 108 97 86 77 69 68 77 92 97 90 77 71 71 68 64 60 55 51 47 41 37 38 40 43 46 40 35 37 50 71 86 82 62 33 18 1 333
76 86 129 163 98 105 127 138 84 60 42 103 112 116 123 130 135 138 135 133 133 125 114 125 143 144 149 157 152 138 124 126 125 121 125 130 134 140 148 151 152 153 152 148 143 140 139 137 131 125 118 106 92 80 70 66 71 87 102 100 89 87 86 75 66 61 56 53 50 42 37 39 40 38 39 40 35 38 51 66 74 72 64 50 34 18 353
86 97 124 137 88 97 113 122 111 101 106 114 117 116 123 132 139 139 125 112 120 128 125 131 148 152 153 155 150 139 132 129 122 115 115 120 126 131 135 140 149 160 166 166 161 157 154 151 148 142 132 119 104 90 78 70 72 85 103 107 100 97 93 80 68 61 53 48 43 37 35 40 44 40 37 38 38 34 37 46 51 50 45 38 31 21 10
89 105 114 103 86 92 120 127 124 135 135 127 125 126 122 125 127 122 111 112 128 140 139 143 155 161 159 156 150 144 142 138 132 126 120 121 123 122 120 119 125 139 156 168 174 176 175 173 168 162 154 142 125 105 87 75 70 76 86 95 98 95 85 71 59 49 43 38 34 32 36 41 45 44 38 35 34 29 22 22 25 26 25 25 26 24 20
82 83 97 103 107 152 200 184 121 135 141 136 131 133 136 134 128 118 110 115 133 145 148 154 163 167 163 158 151 145 147 149 147 145 148 146 135 130 129 124 118 116 122 136 158 177 187 190 186 181 174 161 141 119 98 79 65 62 66 69 71 72 64 52 43 38 36 34 31 29 33 38 41 42 40 35 30 27 22 18 13 9 9 14 20 23 23
69 33 33 86 167 194 179 124 105 119 126 133 143 147 144 141 137 130 122 123 135 150 161 169 173 173 169 165 161 153 156 166 172 180 193 196 199 201 185 170 162 152 142 148 184 195 201 205 206 208 205 190 166 141 109 78 61 54 56 58 56 53 42 29 27 30 32 32 29 27 29 36 41 42 41 38 33 29 25 19 13 7 3 7 15 21 23
2 4 7 315 288 132 113 102 101 102 99 120 146 153 152 153 155 152 145 142 149 166 182 191 195 196 194 189 191 195 193 193 206 224 230 225 222 222 224 229 234 237 245 257 258 251 238 228 224 224 222 210 194 181 159 105 70 55 52 52 54 49 36 18 10 14 23 29 29 25 25 32 40 43 43 41 40 39 34 24 18 14 8 7 11 16 18
339 348 46 60 79 113 112 102 101 98 82 101 143 158 171 183 196 198 173 164 177 194 203 207 210 214 217 216 219 227 233 235 245 261 265 253 236 229 230 232 236 247 256 259 266 266 254 243 237 233 226 217 206 200 196 166 97 65 48 41 39 38 30 18 10 1 1 15 21 21 22 26 34 39 40 42 47 46 36 25 21 18 15 15 14 11 10
2 23 66 79 85 103 112 114 121 117 97 91 130 191 214 212 226 234 203 183 205 218 217 218 221 225 230 232 234 242 250 256 265 276 282 276 259 242 233 231 236 248 257 262 274 277 263 250 245 239 229 221 215 211 209 200 118 77 48 32 26 20 13 10 8 2 357 3 11 15 17 18 25 31 32 38 48 46 33 23 19 18 18 18 15 10 6
70 54 65 73 68 90 117 135 142 140 139 144 182 216 221 225 245 259 243 228 237 233 222 224 231 234 237 239 244 249 255 259 265 270 273 275 272 256 243 239 241 249 258 265 274 275 264 250 244 239 230 223 221 221 222 226 163 78 47 30 20 13 10 11 14 12 7 4 3 8 12 14 18 22 21 28 47 45 28 18 16 18 20 17 12 10 11
70 40 50 96 128 128 140 154 154 162 173 183 203 214 214 221 235 245 246 250 253 246 234 236 241 243 243 245 249 254 258 263 268 267 268 275 277 263 252 248 247 251 257 261 264 266 263 251 237 230 227 224 223 223 228 240 246 88 50 31 22 17 16 18 20 18 12 8 6 7 9 10 12 11 7 15 37 35 20 13 16 22 22 17 11 13 16
323 317 299 265 249 250 189 175 182 200 202 181 160 224 229 235 240 242 242 242 241 240 240 243 245 246 246 246 251 256 254 256 272 284 291 300 294 265 250 247 250 254 257 256 255 260 265 255 233 222 223 224 223 220 225 247 254 223 86 39 27 25 23 20 19 18 17 17 12 8 7 8 8 5 3 9 18 15 9 14 23 28 25 17 12 12 15
341 320 313 306 303 309 305 258 226 233 210 127 158 205 218 225 231 236 241 242 242 245 249 249 245 238 234 237 245 251 253 261 282 298 306 304 284 269 260 255 255 260 263 263 260 259 261 255 236 223 222 223 221 217 225 245 241 209 142 56 33 31 28 21 20 26 31 28 26 29 28 21 15 9 7 8 7 6 12 21 27 28 25 20 12 10 14
41 28 20 27 25 8 351 343 335 325 171 186 216 222 219 219 230 249 261 261 257 254 251 243 227 216 218 228 239 249 258 271 288 299 303 293 270 262 261 260 262 267 277 282 275 262 255 251 238 226 222 220 216 216 229 237 223 200 169 92 49 39 32 26 27 35 42 41 43 48 44 31 18 13 13 10 8 17 28 33 33 32 31 26 20 19 20
42 40 41 40 36 27 9 352 336 313 268 239 240 252 288 319 319 312 304 292 276 259 244 228 215 210 218 232 241 246 255 266 277 288 293 285 273 267 265 265 264 265 271 281 282 271 257 250 237 224 218 212 209 217 230 222 204 191 175 137 92 61 47 40 40 48 55 57 58 60 54 47 39 28 21 22 25 34 42 44 42 41 39 33 32 35 34
35 36 40 40 34 24 4 347 328 302 285 272 269 282 299 306 304 304 304 297 278 253 233 221 215 217 226 234 237 244 251 257 267 280 285 280 274 272 270 269 267 264 264 271 277 271 257 241 222 208 204 204 211 223 218 200 188 186 182 170 140 90 63 54 57 66 69 67 69 66 57 50 42 30 30 43 51 50 50 50 48 45 42 40 44 49 48
10 16 17 8 1 353 339 332 330 321 308 301 301 303 303 300 300 307 311 303 278 243 224 217 216 219 224 226 233 246 255 260 268 277 281 277 272 272 277 284 286 282 276 272 263 250 239 227 208 199 198 205 218 216 195 181 178 184 188 187 173 119 79 65 70 83 81 74 74 72 63 55 48 41 49 62 64 58 54 52 48 45 44 47 51 56 57
344 354 1 357 351 341 328 319 318 319 321 322 322 317 309 303 311 332 331 313 278 231 217 216 217 220 225 230 237 248 258 263 271 280 282 276 270 272 283 297 309 306 292 281 258 233 223 215 206 201 203 209 209 195 182 179 188 200 200 198 192 160 105 79 82 93 92 82 80 78 71 67 64 60 58 62 63 61 57 52 47 46 48 52 57 61 56
324 335 345 348 349 347 337 322 314 314 317 323 331 332 325 314 307 314 324 313 262 231 224 223 224 229 236 241 246 253 260 265 274 283 282 275 268 268 279 297 315 321 316 320 292 229 218 214 209 207 206 205 199 190 186 196 217 221 213 210 203 182 141 103 100 105 101 93 91 87 84 81 74 65 63 66 67 64 61 56 51 49 49 53 59 60 51
315 323 328 332 338 344 343 334 325 320 316 313 321 334 338 329 307 282 266 257 251 247 245 243 243 246 250 252 255 259 264 267 271 278 279 276 268 263 271 287 298 300 306 327 330 249 221 217 216 213 208 205 202 198 199 214 228 224 217 218 213 200 178 142 120 117 116 112 104 97 97 99 87 68 65 72 75 71 67 65 60 56 57 59 61 59 56
320 322 320 321 326 332 334 333 329 320 310 305 307 316 325 325 308 271 258 259 259 256 255 256 256 255 255 255 256 260 267 269 270 273 278 281 278 272 275 286 294 291 284 287 293 270 232 221 219 217 213 213 214 212 211 219 227 224 221 225 223 213 199 175 142 127 124 123 119 112 112 116 111 79 66 72 82 82 76 73 68 64 65 66 66 64 62
329 331 327 324 325 325 324 324 324 317 306 301 299 298 300 306 305 275 263 265 264 260 258 259 259 259 258 256 255 259 266 272 274 273 275 281 285 282 282 295 309 304 282 263 253 245 232 219 215 215 216 219 223 220 217 221 227 225 225 233 237 223 209 196 174 150 137 127 123 124 124 126 134 111 75 80 93 97 91 84 78 75 75 74 72 71 72
340 347 342 333 328 326 323 318 315 311 306 300 288 277 274 275 273 270 275 277 271 266 263 260 260 262 263 263 263 264 268 273 276 273 266 266 277 284 283 290 315 328 318 290 261 244 233 221 214 215 220 225 225 220 215 218 225 228 228 238 247 234 216 205 194 175 157 140 130 127 124 123 136 145 120 109 115 117 112 105 97 88 86 85 79 76 81
346 349 344 334 329 327 326 321 315 311 310 304 289 275 271 272 269 268 274 279 276 269 263 261 264 272 274 272 272 274 275 276 279 275 265 260 270 281 283 285 291 301 312 313 293 258 235 226 223 228 234 235 225 213 208 213 226 233 236 244 253 241 220 210 203 193 177 159 145 136 131 123 119 123 129 135 136 134 131 126 118 106 97 90 85 85 89
342 342 340 337 333 328 325 321 315 307 300 293 284 282 287 290 281 271 270 270 267 263 262 267 276 284 284 274 269 270 275 282 287 285 274 268 271 279 284 287 290 289 288 296 299 269 234 224 225 234 242 235 216 204 205 216 232 242 246 250 254 244 222 211 207 203 194 181 167 155 150 146 134 119 117 129 140 141 137 132 130 135 131 100 85 89 96
339 337 336 336 335 334 333 327 315 298 287 284 286 291 298 301 289 270 259 257 258 261 265 270 273 277 279 277 271 271 276 281 283 286 283 274 258 248 266 285 286 276 266 267 273 247 222 218 222 232 238 227 210 207 215 228 241 247 249 250 249 241 223 213 210 209 205 198 190 181 175 173 167 150 138 137 143 147 147 145 149 159 163 141 95 96 108
348 347 345 341 337 335 336 331 314 300 301 303 302 302 305 302 285 261 247 244 250 258 264 268 268 267 268 270 273 278 285 284 277 276 280 272 243 222 236 295 297 271 253 249 247 230 214 217 226 234 235 228 221 223 230 239 244 244 243 236 224 213 215 217 216 215 215 212 208 201 194 191 189 183 176 168 161 159 165 176 183 182 182 185 168 119 119
356 354 352 348 340 334 330 321 305 302 312 316 313 311 310 300 282 271 262 252 247 250 257 262 266 267 267 268 270 273 280 288 287 282 280 274 256 242 244 262 276 256 239 241 256 251 203 201 215 228 234 234 235 236 238 238 232 223 210 193 181 229 261 249 234 227 224 222 220 217 211 206 204 203 199 193 187 182 186 199 202 198 196 204 221 220 137
353 351 348 346 342 337 332 326 314 309 316 323 323 321 316 304 292 289 287 273 256 253 258 262 266 267 263 260 262 265 268 279 294 298 297 296 290 272 247 233 229 228 230 241 266 301 188 180 186 200 218 224 224 221 215 209 201 193 188 200 280 281 272 263 254 243 233 228 227 227 225 219 214 215 216 213 210 209 208 207 209 210 208 210 218 230 233
343 341 341 346 347 346 346 348 344 334 330 331 330 330 329 323 312 306 300 287 270 263 263 264 268 270 258 240 238 249 263 279 297 310 316 316 312 294 250 225 218 216 215 221 258 349 38 114 96 82 107 152 172 180 187 189 191 197 213 250 281 282 271 259 251 243 234 228 226 227 228 226 223 223 224 225 224 223 220 217 219 223 220 213 212 221 230
Height
781 781 779 777 777 782 786 785 782 781 778 774 772 775 779 772 758 757 767 771 769 769 772 775 777 779 783 787 788 789 789 790 790 790 790 791 791 790 789 789 788 787 787 786 784 782 780 778 778 779 781 782 783 783 784 787 789 791 792 792 793 795 798 801 803 805 807 809 811 814 816 817 818 819 821 823 825 826 828 829 831 832 834 835 835 836 836
778 780 781 780 779 784 789 789 787 785 780 777 777 779 780 776 769 769 772 772 773 776 777 781 785 784 786 790 790 791 792 793 794 794 793 794 794 793 793 793 791 790 791 791 788 787 785 783 782 783 784 785 786 786 787 788 790 792 793 793 794 796 798 801 804 806 808 810 813 816 817 818 819 821 822 824 825 827 828 829 830 832 834 835 835 835 835
775 779 782 783 781 785 790 793 794 790 784 781 782 784 783 780 775 773 774 774 778 784 786 788 790 789 790 793 795 796 797 797 797 798 798 799 799 798 798 797 796 794 795 795 793 792 792 790 788 788 788 788 788 788 789 790 792 794 794 795 797 798 800 803 805 807 809 810 813 815 817 819 820 822 823 825 826 827 828 829 830 831 833 834 834 834 834
772 780 782 782 783 784 786 794 800 797 792 790 790 790 790 787 780 776 776 776 782 790 792 792 795 796 796 799 801 802 802 802 801 802 802 803 803 802 802 800 800 800 800 800 798 796 796 795 793 792 791 791 791 792 793 794 795 796 796 797 800 802 803 804 806 808 809 811 813 816 818 820 821 823 824 825 825 827 828 829 830 831 832 833 834 834 834
771 781 781 778 778 776 781 796 806 804 799 797 794 792 792 793 788 781 779 781 786 792 792 794 801 804 804 806 807 806 807 807 806 806 806 806 806 806 805 803 804 805 806 805 803 800 799 798 798 797 795 794 795 796 796 798 799 798 799 801 803 805 806 806 807 809 810 812 815 817 820 821 822 823 824 825 826 827 829 830 830 831 832 833 833 834 834
771 781 781 775 772 775 789 805 809 804 802 799 796 795 795 795 791 788 789 794 797 798 797 800 807 809 811 812 812 811 811 810 810 810 810 809 809 809 808 807 808 810 810 809 806 803 802 801 802 802 799 797 798 799 799 801 802 803 805 806 807 808 808 808 810 813 814 815 817 819 821 822 823 824 825 826 827 828 829 830 831 832 833 833 833 834 835
773 780 776 770 775 788 801 808 806 803 801 800 799 798 798 798 795 794 799 803 806 807 808 809 812 813 815 815 815 815 815 814 814 813 812 813 812 811 811 811 812 813 814 812 809 807 806 806 806 805 803 800 801 803 804 805 806 807 808 810 810 811 812 814 816 817 818 819 820 822 823 823 824 826 827 827 828 829 830 831 832 833 833 834 834 834 835
775 775 772 776 790 800 802 804 806 805 803 803 801 797 797 801 801 800 805 809 809 811 812 813 814 815 815 816 818 819 818 817 817 815 815 816 815 814 814 814 814 815 815 815 812 810 811 811 810 809 808 807 807 807 808 809 809 810 811 812 814 815 816 818 820 821 821 822 823 824 824 825 826 827 828 829 829 830 830 831 832 834 834 834 835 835 836
779 775 778 788 794 799 803 806 809 812 812 812 811 804 801 805 805 803 808 812 812 812 813 813 814 813 812 816 822 823 821 819 818 817 817 817 816 816 816 816 817 817 817 818 816 815 816 816 815 814 813 812 811 811 812 812 813 814 815 816 818 819 820 822 823 823 824 825 825 825 826 826 827 828 829 830 830 831 832 832 833 834 835 835 835 836 836
779 774 782 791 790 795 807 810 812 815 813 814 816 810 805 808 809 807 809 812 813 814 814 813 813 810 811 819 826 827 824 821 820 820 820 819 818 818 818 818 819 819 820 822 822 820 820 820 818 818 817 815 815 815 816 817 818 818 819 821 823 823 824 825 825 825 826 826 826 827 827 828 829 830 830 831 832 832 833 833 834 834 835 835 836 836 836
782 779 788 798 798 803 812 813 813 813 810 813 815 804 799 810 814 810 811 814 813 812 812 813 813 811 814 824 830 828 826 824 822 823 823 822 820 820 821 822 822 822 825 827 826 824 823 822 822 820 819 818 818 819 820 821 822 822 824 826 826 826 827 827 828 828 828 828 827 828 828 829 830 831 832 832 833 834 834 834 835 835 836 836 836 836 836
790 791 799 807 808 810 815 814 812 810 811 813 806 791 796 814 816 812 815 817 814 813 812 812 814 814 816 823 829 829 828 826 825 826 826 825 823 823 824 825 825 826 827 829 829 828 826 825 825 823 822 821 822 823 824 824 825 827 828 829 829 829 829 829 830 830 830 829 829 829 830 830 831 832 833 833 834 834 834 835 835 836 836 836 836 836 836
794 794 800 808 811 814 817 815 812 812 811 805 795 794 808 819 815 813 817 817 815 815 813 813 817 820 820 825 829 830 829 828 828 829 829 828 826 827 828 828 829 829 830 830 831 831 829 828 827 826 824 824 825 827 827 826 828 830 831 831 831 831 831 831 831 832 832 832 832 831 831 832 833 833 833 833 834 834 835 835 835 836 836 836 836 836 836
803 798 798 804 811 817 819 815 811 809 806 800 802 812 819 818 815 816 817 816 816 817 817 818 822 824 826 829 831 831 831 830 830 831 831 830 829 829 830 831 831 831 832 832 832 832 832 831 830 828 827 827 828 829 829 829 831 833 833 833 833 832 832 832 833 833 834 834 834 834 834 834 833 833 833 833 834 834 835 835 835 835 835 835 835 835 835
807 801 800 805 813 819 820 816 811 811 811 812 817 821 818 815 818 819 819 820 820 819 820 823 825 827 830 832 832 833 833 833 832 832 833 832 832 832 833 833 833 833 834 834 834 835 835 834 832 831 830 830 831 831 831 833 834 834 835 835 834 834 834 835 835 835 835 836 836 836 835 835 834 833 833 833 833 834 834 834 835 835 835 835 835 835 834
808 806 813 820 824 825 824 820 819 821 823 822 821 820 818 819 821 822 823 825 824 822 824 827 828 831 833 834 834 834 834 834 834 834 834 835 835 835 835 835 835 834 835 836 836 837 837 836 835 834 833 833 834 834 834 836 836 836 836 836 836 836 836 836 837 837 837 837 837 837 837 836 835 835 834 834 834 834 834 834 834 834 834 834 834 833 833
816 818 824 828 828 827 826 825 825 826 825 823 820 820 821 822 823 825 827 829 828 828 828 829 831 833 834 835 835 834 834 835 835 834 835 836 836 837 837 837 837 836 836 837 838 838 839 838 837 837 836 836 836 837 838 839 838 838 837 837 837 838 838 838 839 839 839 839 838 838 838 837 836 836 835 835 834 834 834 834 834 834 834 834 834 834 833
821 822 826 828 827 827 826 825 825 824 823 823 822 822 823 824 825 827 829 830 831 831 831 832 835 836 836 836 836 836 836 836 835 836 837 837 837 838 839 839 839 839 839 839 839 839 840 840 839 839 840 839 839 840 841 841 840 840 840 839 840 840 840 841 841 840 841 840 840 839 838 837 837 836 836 836 835 835 835 835 835 835 835 835 834 834 833
822 823 827 829 828 829 828 826 825 825 824 824 824 824 826 827 827 829 830 832 833 833 834 835 837 837 838 838 838 838 837 837 837 837 838 838 839 840 840 841 841 840 840 841 841 841 842 842 842 842 842 842 842 842 843 843 842 842 842 842 842 842 842 842 842 842 841 841 841 840 839 838 838 837 836 836 836 835 835 835 835 835 835 834 834 833 832
824 827 830 830 829 829 828 826 826 827 826 827 827 826 827 829 830 831 833 833 834 835 836 837 838 839 839 839 839 840 839 839 839 839 839 840 841 841 841 842 842 842 842 842 843 844 844 845 845 844 844 844 844 844 845 844 844 844 843 843 843 843 843 842 842 842 842 841 841 841 840 840 839 838 838 837 837 836 836 836 836 835 835 834 834 833 832
826 830 830 829 828 829 830 829 829 829 828 829 829 829 830 831 832 834 835 835 836 837 838 838 839 839 840 840 840 841 841 841 841 841 841 841 842 842 843 843 843 843 843 844 844 845 845 846 846 846 846 846 846 846 846 846 845 845 844 844 843 843 843 843 843 843 842 842 842 841 841 841 840 840 839 838 838 838 837 837 836 836 835 835 834 833 832
825 827 827 827 827 829 831 831 831 831 831 830 830 831 832 833 833 834 836 837 838 838 839 839 840 840 841 842 841 841 842 842 842 842 842 842 842 843 843 843 844 844 844 845 845 846 846 847 847 847 848 847 847 847 847 846 846 845 845 844 844 844 844 844 844 844 844 844 843 843 842 842 842 841 840 839 838 838 837 836 836 835 835 834 834 833 832
823 825 826 828 827 828 831 832 833 833 833 831 832 832 833 834 834 834 835 837 839 840 841 841 840 841 842 843 843 843 843 843 843 843 843 843 843 844 844 844 845 845 845 846 846 847 847 848 848 848 849 848 848 848 848 847 846 846 846 846 846 846 846 846 846 846 846 845 845 844 844 843 842 842 841 840 838 837 836 835 835 835 834 834 833 833 832
824 826 828 830 828 828 831 833 833 834 834 833 834 834 834 834 835 835 836 837 838 840 841 842 842 842 843 843 843 843 844 844 844 844 845 845 845 845 845 846 846 846 847 847 847 847 848 848 849 849 849 849 849 849 848 848 847 847 847 847 847 848 848 848 847 847 847 847 846 845 844 843 842 841 840 840 839 838 837 836 836 835 835 834 833 832 831
825 828 830 830 829 830 832 834 834 835 835 834 835 835 835 835 836 836 837 838 838 839 840 842 843 843 843 844 844 844 844 845 845 845 846 846 847 847 847 847 847 847 848 847 848 848 848 849 849 850 849 849 850 849 849 849 848 848 848 848 849 849 849 849 848 848 847 847 846 844 844 842 841 841 840 839 839 838 838 837 836 835 834 833 831 830 829
828 830 830 830 832 833 833 833 834 834 835 835 835 836 837 837 837 838 838 839 839 840 840 842 843 843 844 845 845 845 846 846 846 847 847 847 848 848 848 848 848 848 848 849 849 849 849 850 850 850 850 850 850 850 850 850 849 849 849 849 849 849 848 848 847 847 846 845 844 843 842 841 841 840 839 839 838 838 837 836 835 834 833 831 830 829 827
831 830 830 831 833 834 833 833 833 834 835 836 836 837 838 838 838 839 840 840 841 841 841 842 843 843 844 845 845 846 846 847 847 848 848 848 848 849 849 849 849 849 850 850 850 850 850 851 851 851 851 850 850 850 850 850 850 849 849 848 848 847 846 846 846 845 844 844 843 843 842 841 841 840 840 839 838 838 837 836 835 833 832 831 830 828 826
832 832 832 831 831 832 833 833 834 835 836 836 837 838 838 839 839 840 840 841 842 842 843 843 843 844 844 845 845 846 846 847 847 848 848 848 848 849 849 849 850 850 850 851 851 851 851 851 851 851 851 850 850 850 850 850 849 849 848 848 847 847 846 846 845 845 845 845 844 844 843 842 842 841 840 839 839 838 837 836 835 834 832 831 829 828 826
833 833 833 832 832 832 833 834 836 837 837 837 838 838 838 839 840 840 841 842 842 843 843 843 843 844 844 844 845 845 846 846 847 847 848 848 848 849 849 849 849 850 850 850 851 851 851 851 851 851 851 850 850 850 850 850 850 849 849 848 848 847 847 847 846 846 846 846 845 845 844 843 842 841 840 840 839 838 838 837 835 834 833 831 830 828 826
834 834 833 833 833 832 833 835 836 837 838 838 839 839 839 839 839 839 840 842 842 843 843 843 843 844 844 844 845 845 845 846 846 847 847 848 848 848 848 848 849 849 849 849 850 850 850 851 850 850 850 850 850 850 850 850 850 849 849 849 848 848 848 847 847 847 846 846 845 844 844 843 842 841 840 840 839 838 838 837 835 834 833 832 831 829 828
835 834 833 834 833 833 834 836 837 837 839 839 839 840 840 839 839 839 840 841 842 842 842 843 843 843 844 844 844 845 845 845 846 846 847 847 847 847 847 848 848 848 848 848 848 848 848 849 849 849 849 849 849 849 849 849 849 849 849 848 848 848 847 846 846 845 845 844 844 843 843 842 841 840 840 839 839 838 837 836 835 834 834 833 832 831 829
835 835 834 834 834 834 834 836 836 837 838 839 839 839 839 839 839 839 840 841 841 841 842 842 842 842 843 843 844 844 844 845 845 846 846 846 846 846 846 847 847 847 847 847 847 847 847 847 847 847 848 848 848 848 848 848 848 848 847 847 847 846 846 845 844 843 843 843 842 842 842 841 841 840 839 839 838 838 837 836 836 835 834 834 833 832 831
834 834 834 835 835 834 834 835 836 836 836 837 837 837 838 839 839 839 839 840 840 840 841 841 840 841 842 843 843 843 844 844 844 845 845 845 845 845 845 846 846 846 846 846 846 846 845 845 845 846 846 846 847 847 847 847 847 847 846 846 846 845 845 844 843 843 842 842 842 842 841 841 840 840 839 839 839 838 838 837 836 836 835 835 834 833 831
834 834 834 834 834 834 834 835 835 835 835 836 837 837 837 837 838 837 838 838 838 839 839 839 839 840 841 842 842 843 843 843 843 843 844 844 844 844 844 844 845 845 845 845 845 844 844 844 844 844 845 845 845 846 846 846 846 846 845 845 845 845 845 844 843 843 842 842 841 841 841 840 840 840 839 839 839 838 838 837 837 836 836 835 834 833 832
835 835 835 835 835 835 835 835 835 835 835 835 836 836 836 836 836 836 836 836 836 837 837 838 839 839 840 841 841 842 842 842 842 842 843 843 843 843 843 843 844 844 844 843 843 843 843 843 843 843 843 844 844 845 845 845 845 845 845 845 845 845 845 844 843 842 842 842 841 841 841 840 840 840 840 839 839 839 838 838 837 837 836 836 835 834 832
835 835 835 835 835 835 835 835 835 835 835 835 835 835 835 835 835 835 835 835 835 835 836 837 838 838 839 840 840 841 841 842 841 841 842 842 842 842 842 842 842 843 842 842 842 841 841 841 842 842 842 843 843 844 844 844 844 844 845 844 845 845 845 844 843 843 842 842 842 841 841 841 840 840 840 840 839 839 839 838 838 837 837 836 836 834 833
836 836 836 836 836 836 836 836 836 836 835 835 835 834 834 834 834 834 834 834 834 834 835 836 837 837 838 838 839 840 840 841 841 841 841 841 841 841 841 841 841 841 841 840 840 840 840 840 840 840 841 842 842 843 843 843 843 844 844 844 844 845 845 844 843 843 843 843 842 841 841 841 840 840 840 840 840 840 839 839 838 838 837 837 836 835 834
837 837 837 837 836 836 836 836 836 836 835 835 835 834 834 834 833 833 833 832 832 833 834 835 836 837 837 838 838 839 839 840 840 840 840 840 840 840 840 839 839 839 839 839 839 839 839 839 839 839 840 841 841 842 842 842 843 843 844 844 844 844 844 844 843 843 843 843 842 842 842 841 841 841 840 840 840 840 839 839 838 838 838 838 837 836 835
837 837 837 837 837 837 836 836 836 835 835 835 834 834 834 833 832 832 831 831 832 832 833 834 835 836 836 837 837 838 838 839 839 839 839 839 839 839 838 838 837 837 837 837 837 837 838 838 838 839 840 840 841 841 841 842 842 843 843 843 844 844 844 844 843 843 843 843 843 842 842 841 841 841 840 840 840 840 840 839 839 839 839 839 838 838 837
837 837 837 837 837 836 836 836 835 835 835 835 834 834 833 832 831 831 831 831 831 832 832 834 834 835 835 836 836 837 837 838 838 838 838 838 838 837 837 836 836 835 835 835 835 835 836 837 838 838 839 839 840 840 841 841 842 842 842 842 843 843 844 843 843 843 843 843 843 843 842 842 841 841 841 841 841 840 840 840 840 840 839 839 839 839 838
837 837 836 836 836 836 836 836 835 835 834 834 833 833 833 832 831 831 831 831 831 832 832 833 833 834 834 835 835 835 836 836 837 837 837 837 836 836 836 835 835 834 834 834 834 834 835 835 836 837 838 839 839 840 840 841 841 841 841 842 842 843 843 843 843 843 843 843 843 843 842 842 842 841 841 841 841 841 841 841 841 840 840 840 840 840 839
837 837 836 836 835 835 835 835 835 834 833 833 833 833 832 831 831 831 831 831 831 832 832 832 833 833 833 834 834 834 835 835 835 836 835 835 835 835 835 834 834 833 833 833 833 833 833 834 835 836 837 838 838 839 839 840 840 840 840 841 841 842 842 843 843 843 843 843 843 843 842 842 842 842 842 842 842 842 841 841 841 841 841 841 841 840 840
836 836 836 835 835 834 834 834 834 833 833 832 832 832 832 831 831 831 831 831 831 831 831 831 832 832 832 833 833 833 833 833 833 834 834 834 834 834 833 833 832 832 832 832 832 832 833 833 834 835 836 836 837 837 838 838 839 839 839 840 840 841 841 842 842 842 842 842 842 842 843 843 843 843 843 843 842 842 842 842 842 842 842 842 842 841 841
836 835 835 834 834 834 833 833 833 832 832 831 831 831 831 831 831 830 830 830 830 830 830 830 830 831 831 831 832 832 831 831 832 832 832 832 832 832 832 832 831 831 831 831 831 831 832 832 833 833 834 835 835 836 837 837 837 838 838 839 839 840 840 841 842 842 842 842 842 842 842 843 843 843 843 843 843 842 842 842 843 843 843 843 843 842 842
835 835 834 833 833 833 832 832 832 831 831 830 830 830 830 830 830 830 830 830 830 830 829 829 829 830 830 830 830 830 830 830 830 830 831 831 830 830 831 830 830 830 830 830 830 830 830 831 832 832 833 833 834 835 835 836 836 837 837 837 838 838 839 840 841 841 841 841 842 842 842 842 842 843 843 843 843 843 843 843 843 843 844 844 843 843 843
834 834 833 833 833 832 832 831 831 830 830 830 829 828 829 829 829 829 829 829 829 829 829 828 829 829 829 829 829 829 828 828 828 828 829 829 829 829 829 829 829 829 829 829 829 828 829 829 830 831 831 832 832 833 834 835 835 835 836 836 836 837 837 838 839 840 841 841 841 841 842 842 842 843 843 843 843 842 843 843 843 844 844 844 844 843 843
833 833 833 832 832 832 831 831 830 830 829 829 828 828 828 828 827 827 827 827 827 828 828 827 828 828 828 827 827 827 827 827 827 827 827 827 827 828 828 828 828 828 828 828 828 827 827 828 829 829 830 830 831 832 833 833 834 834 835 835 835 835 836 837 838 839 839 840 840 841 841 842 842 842 842 842 842 842 843 843 843 844 844 844 844 844 844
833 832 832 832 831 831 830 830 830 829 828 828 827 827 826 826 826 826 826 826 826 826 826 826 826 826 826 826 826 826 826 826 826 826 826 826 826 826 827 827 827 827 827 827 827 827 827 827 828 828 829 829 830 831 831 832 833 833 834 834 834 834 834 835 836 837 838 838 839 840 840 841 841 842 842 842 842 842 842 843 843 844 844 844 844 844 844
832 832 832 831 831 831 830 829 829 828 827 827 826 826 825 825 825 824 824 824 824 824 824 824 824 824 825 825 825 825 825 825 825 825 825 825 825 825 826 826 826 826 826 826 826 826 826 826 827 827 827 828 829 829 830 831 831 832 832 833 833 833 833 834 835 835 836 837 838 839 839 840 840 841 841 842 842 842 842 843 843 843 844 844 844 844 844
832 832 831 831 831 830 829 829 828 827 827 826 826 825 825 824 823 823 823 823 823 823 823 823 823 823 823 823 823 823 824 824 824 824 823 823 824 824 824 825 825 825 825 826 826 826 826 826 826 826 826 827 828 828 829 829 830 831 832 832 832 832 832 833 833 834 835 836 836 837 838 838 839 839 840 841 841 841 842 842 842 843 843 843 843 843 844
832 832 831 831 830 830 829 828 827 826 826 825 825 824 824 823 823 822 822 822 822 822 822 821 821 822 822 822 822 822 822 823 823 823 822 822 822 822 823 823 824 824 825 825 825 825 825 825 825 826 826 826 826 827 827 828 829 830 831 831 831 831 832 832 832 832 833 834 835 836 836 837 837 838 839 839 840 840 840 841 841 842 842 842 843 843 843
832 832 831 831 830 829 828 827 827 826 825 825 824 824 823 823 821 821 820 820 820 820 820 820 820 820 820 820 821 821 821 822 822 822 821 821 821 821 821 822 822 823 824 824 824 824 824 825 825 825 825 826 826 826 827 828 829 829 830 830 831 831 831 830 831 831 831 832 833 834 835 835 836 837 837 838 838 838 839 840 840 841 841 841 841 842 842